Meteo pe oră la Bolshie Duravki

Astăzi, 12 Mai, Miercuri

Timp Temperatura Precipitaţii Vânt Presiune Umiditate
00:00 +11°C° 0 mm 3 m/s 747 mmHg 93%
01:00 +11°C° 0 mm 3 m/s 747 mmHg 95%
02:00 +10°C° 0 mm 3 m/s 747 mmHg 96%
03:00 +10°C° 0 mm 3 m/s 747 mmHg 96%
04:00 +10°C° 0 mm 3 m/s 747 mmHg 95%
05:00 +8°C° 0 mm 4 m/s 748 mmHg 94%
06:00 +10°C° 0 mm 4 m/s 748 mmHg 85%
07:00 +11°C° 0 mm 4 m/s 748 mmHg 76%
08:00 +11°C° 0 mm 4 m/s 748 mmHg 68%
09:00 +12°C° 0 mm 4 m/s 748 mmHg 63%
10:00 +13°C° 0 mm 3 m/s 748 mmHg 59%
11:00 +14°C° 0 mm 3 m/s 747 mmHg 55%
12:00 +16°C° 0 mm 3 m/s 747 mmHg 53%
13:00 +16°C° 0 mm 3 m/s 746 mmHg 51%
14:00 +17°C° 0 mm 3 m/s 746 mmHg 49%
15:00 +16°C° 0 mm 3 m/s 745 mmHg 55%
16:00 +14°C° 0 mm 3 m/s 744 mmHg 61%
17:00 +14°C° 0 mm 3 m/s 744 mmHg 67%
18:00 +13°C° 0.6 mm 2 m/s 743 mmHg 76%
19:00 +12°C° 0.6 mm 2 m/s 742 mmHg 85%
20:00 +10°C° 0.6 mm 2 m/s 741 mmHg 94%
21:00 +9°C° 1.9 mm 3 m/s 741 mmHg 94%
22:00 +8°C° 1.9 mm 4 m/s 741 mmHg 95%
23:00 +8°C° 1.9 mm 5 m/s 740 mmHg 96%

Mâine, 13 Mai, Joi

Timp Temperatura Precipitaţii Vânt Presiune Umiditate
00:00 +8°C° 0.5 mm 5 m/s 741 mmHg 95%
01:00 +7°C° 0.5 mm 4 m/s 741 mmHg 95%
02:00 +7°C° 0.5 mm 4 m/s 741 mmHg 95%
03:00 +7°C° 0.1 mm 4 m/s 741 mmHg 95%
04:00 +6°C° 0.1 mm 4 m/s 740 mmHg 95%
05:00 +6°C° 0.1 mm 4 m/s 740 mmHg 95%
06:00 +7°C° 0.5 mm 5 m/s 740 mmHg 94%
07:00 +7°C° 0.5 mm 5 m/s 740 mmHg 92%
08:00 +7°C° 0.5 mm 5 m/s 740 mmHg 91%
09:00 +9°C° 0.3 mm 6 m/s 740 mmHg 84%
10:00 +10°C° 0.3 mm 6 m/s 740 mmHg 77%
11:00 +11°C° 0.3 mm 6 m/s 740 mmHg 71%
12:00 +11°C° 0.2 mm 6 m/s 740 mmHg 69%
13:00 +13°C° 0.2 mm 6 m/s 740 mmHg 67%
14:00 +13°C° 0.2 mm 6 m/s 739 mmHg 64%
15:00 +13°C° 0 mm 5 m/s 739 mmHg 66%
16:00 +13°C° 0 mm 5 m/s 739 mmHg 68%
17:00 +12°C° 0 mm 4 m/s 739 mmHg 70%
18:00 +11°C° 0 mm 4 m/s 739 mmHg 75%
19:00 +10°C° 0 mm 3 m/s 739 mmHg 81%
20:00 +8°C° 0 mm 3 m/s 739 mmHg 86%
21:00 +8°C° 0 mm 3 m/s 740 mmHg 88%
22:00 +7°C° 0 mm 3 m/s 740 mmHg 90%
23:00 +7°C° 0 mm 3 m/s 740 mmHg 93%

Poimâine, 14 Mai, Vineri

Timp Temperatura Precipitaţii Vânt Presiune Umiditate
00:00 +7°C° 0 mm 3 m/s 740 mmHg 89%
01:00 +7°C° 0 mm 4 m/s 739 mmHg 85%
02:00 +7°C° 0 mm 4 m/s 739 mmHg 80%
03:00 +7°C° 0 mm 4 m/s 740 mmHg 81%
04:00 +8°C° 0 mm 4 m/s 740 mmHg 82%
05:00 +8°C° 0 mm 4 m/s 740 mmHg 82%
06:00 +8°C° 0 mm 5 m/s 740 mmHg 81%
07:00 +9°C° 0 mm 5 m/s 740 mmHg 80%
08:00 +10°C° 0 mm 5 m/s 740 mmHg 79%
09:00 +13°C° 0 mm 5 m/s 739 mmHg 74%
10:00 +15°C° 0 mm 5 m/s 739 mmHg 69%
11:00 +17°C° 0 mm 6 m/s 739 mmHg 64%
12:00 +19°C° 0.2 mm 6 m/s 739 mmHg 65%
13:00 +19°C° 0.2 mm 6 m/s 738 mmHg 67%
14:00 +20°C° 0.2 mm 6 m/s 738 mmHg 68%
15:00 +19°C° 0.8 mm 6 m/s 737 mmHg 73%
16:00 +19°C° 0.8 mm 5 m/s 737 mmHg 77%
17:00 +19°C° 0.8 mm 5 m/s 737 mmHg 81%
18:00 +17°C° 0.4 mm 4 m/s 737 mmHg 85%
19:00 +16°C° 0.4 mm 3 m/s 736 mmHg 89%
20:00 +14°C° 0.4 mm 3 m/s 736 mmHg 93%
21:00 +13°C° 0.1 mm 3 m/s 736 mmHg 93%
22:00 +13°C° 0.1 mm 2 m/s 736 mmHg 93%
23:00 +13°C° 0.1 mm 2 m/s 736 mmHg 94%

15 Mai, Sâmbătă

Timp Temperatura Precipitaţii Vânt Presiune Umiditate
00:00 +12°C° 0 mm 2 m/s 736 mmHg 94%
01:00 +12°C° 0 mm 1 m/s 736 mmHg 94%
02:00 +11°C° 0 mm 1 m/s 736 mmHg 93%
03:00 +11°C° 0 mm 1 m/s 736 mmHg 93%
04:00 +12°C° 0 mm 1 m/s 736 mmHg 93%
05:00 +12°C° 0 mm 1 m/s 736 mmHg 93%
06:00 +13°C° 0 mm 1 m/s 736 mmHg 90%
07:00 +14°C° 0 mm 2 m/s 736 mmHg 86%
08:00 +16°C° 0 mm 2 m/s 736 mmHg 82%
09:00 +17°C° 0.4 mm 2 m/s 736 mmHg 78%
10:00 +18°C° 0.4 mm 2 m/s 736 mmHg 73%
11:00 +19°C° 0.4 mm 3 m/s 736 mmHg 69%
12:00 +19°C° 1.2 mm 3 m/s 736 mmHg 71%
13:00 +19°C° 1.2 mm 4 m/s 736 mmHg 72%
14:00 +19°C° 1.2 mm 5 m/s 736 mmHg 74%
15:00 +17°C° 0.6 mm 5 m/s 736 mmHg 76%
16:00 +16°C° 0.6 mm 5 m/s 736 mmHg 79%
17:00 +15°C° 0.6 mm 5 m/s 736 mmHg 81%
18:00 +14°C° 0 mm 5 m/s 737 mmHg 85%
19:00 +13°C° 0 mm 4 m/s 737 mmHg 89%
20:00 +12°C° 0 mm 3 m/s 737 mmHg 93%
21:00 +11°C° 0 mm 3 m/s 738 mmHg 94%
22:00 +10°C° 0 mm 3 m/s 738 mmHg 95%
23:00 +10°C° 0 mm 3 m/s 738 mmHg 95%

16 Mai, Duminică

Timp Temperatura Precipitaţii Vânt Presiune Umiditate
00:00 +9°C° 0 mm 3 m/s 739 mmHg 95%
01:00 +9°C° 0 mm 2 m/s 739 mmHg 95%
02:00 +8°C° 0 mm 2 m/s 739 mmHg 95%
03:00 +8°C° 0 mm 2 m/s 740 mmHg 95%
04:00 +8°C° 0 mm 2 m/s 740 mmHg 95%
05:00 +8°C° 0 mm 2 m/s 740 mmHg 95%
06:00 +10°C° 0 mm 2 m/s 741 mmHg 88%
07:00 +13°C° 0 mm 2 m/s 741 mmHg 82%
08:00 +15°C° 0 mm 2 m/s 741 mmHg 75%
09:00 +16°C° 0 mm 2 m/s 741 mmHg 70%
10:00 +17°C° 0 mm 2 m/s 742 mmHg 65%
11:00 +18°C° 0 mm 2 m/s 742 mmHg 61%
12:00 +20°C° 0 mm 1 m/s 742 mmHg 58%
13:00 +21°C° 0 mm 1 m/s 742 mmHg 56%
14:00 +22°C° 0 mm 1 m/s 742 mmHg 54%
15:00 +21°C° 0 mm 1 m/s 742 mmHg 57%
16:00 +21°C° 0 mm 1 m/s 742 mmHg 59%
17:00 +21°C° 0 mm 1 m/s 742 mmHg 62%
18:00 +18°C° 0 mm 2 m/s 742 mmHg 67%
19:00 +17°C° 0 mm 2 m/s 742 mmHg 72%
20:00 +14°C° 0 mm 3 m/s 742 mmHg 78%
21:00 +13°C° 0 mm 3 m/s 741 mmHg 80%
22:00 +13°C° 0 mm 3 m/s 741 mmHg 81%
23:00 +12°C° 0 mm 3 m/s 741 mmHg 83%

17 Mai, Luni

Timp Temperatura Precipitaţii Vânt Presiune Umiditate
00:00 +11°C° 0 mm 4 m/s 741 mmHg 84%
01:00 +11°C° 0 mm 4 m/s 741 mmHg 86%
02:00 +11°C° 0 mm 4 m/s 741 mmHg 87%
03:00 +11°C° 0 mm 4 m/s 741 mmHg 87%
04:00 +10°C° 0 mm 5 m/s 740 mmHg 87%
05:00 +12°C° 0 mm 5 m/s 740 mmHg 87%
06:00 +13°C° 0 mm 6 m/s 739 mmHg 84%
07:00 +15°C° 0 mm 7 m/s 739 mmHg 82%
08:00 +17°C° 0 mm 7 m/s 739 mmHg 80%
09:00 +18°C° 0 mm 8 m/s 738 mmHg 76%
10:00 +21°C° 0 mm 8 m/s 738 mmHg 72%
11:00 +23°C° 0 mm 8 m/s 738 mmHg 68%
12:00 +24°C° 0 mm 8 m/s 738 mmHg 66%
13:00 +26°C° 0 mm 7 m/s 737 mmHg 64%
14:00 +27°C° 0 mm 7 m/s 737 mmHg 62%
15:00 +26°C° 0.1 mm 7 m/s 737 mmHg 64%
16:00 +26°C° 0.1 mm 7 m/s 737 mmHg 66%
17:00 +24°C° 0.1 mm 7 m/s 737 mmHg 68%
18:00 +22°C° 0 mm 6 m/s 737 mmHg 69%
19:00 +21°C° 0 mm 6 m/s 737 mmHg 70%
20:00 +19°C° 0 mm 6 m/s 737 mmHg 72%
21:00 +19°C° 0 mm 5 m/s 737 mmHg 75%
22:00 +17°C° 0 mm 5 m/s 737 mmHg 79%
23:00 +16°C° 0 mm 5 m/s 737 mmHg 83%
Arată mai mult

Formular de consimțământ

Meteoprog și furnizorii noștri de servicii pot stoca și accesa date personale, precum cookies, identificatori de dispozitiv sau alte tehnologii similare pe dispozitivul dumneavoastră și procesa astfel de date pentru a personaliza conținutul și reclamele, dar și pentru a oferi caracteristici de social media și pentru a analiza traficul.

  • Stocarea și/sau accesarea informațiilor pe dispozitivul dumneavoastră

    Cookies, identificatori de dispozitiv sau alte informații pot fi stocate sau accesate pe dispozitiv în scopurile indicate mai sus.

  • Reclame și conținut personalizat, evaluarea reclamelor și a conținutului, informații despre audiențe și dezvoltarea produselor

    Reclamele și conținutul pot fi personalizate pe baza unui profil. Pot fi adăugate date suplimentare pentru a personaliza mai bine reclamele și conținutul. Performanța reclamelor și conținutului poate fi măsurată. Pot fi obținute informații despre utilizatorii care au văzut reclamele și conținutul. Aceste date pot fi utilizate pentru a dezvolta sau îmbunătăți experiența utilizatorilor, sistemele și software-ul.

Dând clic pe ‘Sunt de acord’, permiteți utilizarea cookie-urilor menționate, a identificatorilor de dispozitiv, balizelor web sau altor tehnologii similare. Setările pot fi modificate din browser-ul dispozitivului dumneavoastră.

În anumite scopuri, interesele legitime pot prima asupra consimțământului. Puteți citi mai multe informații în acest sens în Politica privind Confidențialitatea Datelor și Cookie.